SZN204 GVNP-GOBD

Flight info

Callsign SZN204
Flight time N/A
Altitude 33000
Route MILPU1N SONVA DCT MOGSA DCT PIVSA PIVSA1D
Aircraft A320/M-SDE3FGHIRWY/LB1

Departure

Time 2026-04-25 18:04
Airport Nelson Mandela International Airport (GVNP)

Arrival

Time N/A
Airport Blaise Diagne International Airport (GOBD)
Time Latitude Longitude Altitude Speed Heading
2026-04-25 17:43 14.94523 -23.48546 313 ft 0 kts 291°
2026-04-25 17:56 14.94523 -23.48545 313 ft 1 kts 291°
2026-04-25 17:56 14.94518 -23.48532 313 ft 3 kts 282°
2026-04-25 17:56 14.94516 -23.48511 313 ft 3 kts 263°
2026-04-25 17:57 14.94520 -23.48492 312 ft 2 kts 252°
2026-04-25 17:57 14.94521 -23.48488 312 ft 0 kts 251°
2026-04-25 17:59 14.94516 -23.48490 312 ft 3 kts 211°
2026-04-25 17:59 14.94439 -23.48510 312 ft 15 kts 192°
2026-04-25 18:00 14.94361 -23.48485 311 ft 11 kts 127°
2026-04-25 18:00 14.94318 -23.48423 311 ft 10 kts 130°
2026-04-25 18:00 14.94262 -23.48409 311 ft 8 kts 197°
2026-04-25 18:00 14.94198 -23.48433 310 ft 17 kts 201°
2026-04-25 18:01 14.94021 -23.48505 310 ft 37 kts 202°
2026-04-25 18:01 14.93770 -23.48606 308 ft 40 kts 201°
2026-04-25 18:01 14.93512 -23.48721 304 ft 41 kts 203°
2026-04-25 18:01 14.93313 -23.48812 300 ft 13 kts 222°
2026-04-25 18:02 14.93249 -23.48836 300 ft 6 kts 121°
2026-04-25 18:02 14.93260 -23.48822 302 ft 0 kts 18°
2026-04-25 18:03 14.93267 -23.48820 301 ft 7 kts 18°
2026-04-25 18:03 14.93547 -23.48706 303 ft 85 kts 22°
2026-04-25 18:04 14.94317 -23.48378 385 ft 143 kts 22°
2026-04-25 18:04 14.95276 -23.47988 921 ft 157 kts 22°
2026-04-25 18:04 14.96339 -23.47567 1634 ft 167 kts 20°
2026-04-25 18:04 14.97459 -23.47112 2410 ft 184 kts 20°
2026-04-25 18:05 14.98715 -23.46587 3000 ft 204 kts 20°
2026-04-25 18:05 14.99619 -23.46208 3212 ft 219 kts 20°
2026-04-25 18:05 15.01652 -23.45357 3694 ft 251 kts 21°
2026-04-25 18:05 15.03317 -23.44660 4264 ft 263 kts 20°
2026-04-25 18:06 15.04391 -23.44061 4743 ft 270 kts 37°
2026-04-25 18:06 15.05491 -23.42472 5366 ft 282 kts 71°
2026-04-25 18:06 15.05624 -23.40434 6027 ft 289 kts 99°
2026-04-25 18:06 15.04870 -23.37747 6917 ft 296 kts 112°
2026-04-25 18:07 15.04345 -23.36411 7366 ft 299 kts 114°
2026-04-25 18:07 15.03540 -23.34419 8088 ft 301 kts 114°
2026-04-25 18:07 15.02852 -23.32361 8841 ft 305 kts 101°
2026-04-25 18:07 15.02589 -23.30180 9607 ft 307 kts 99°
2026-04-25 18:08 15.02358 -23.27993 10213 ft 314 kts 99°
2026-04-25 18:08 15.02113 -23.25662 10387 ft 337 kts 98°
2026-04-25 18:08 15.01857 -23.23180 10683 ft 353 kts 97°
2026-04-25 18:08 15.01599 -23.20632 11230 ft 360 kts 96°
2026-04-25 18:09 15.01340 -23.18032 11797 ft 366 kts 97°
2026-04-25 18:09 15.01077 -23.15403 12434 ft 370 kts 96°
2026-04-25 18:09 15.00811 -23.12751 13099 ft 373 kts 96°
2026-04-25 18:09 15.00631 -23.10980 13498 ft 376 kts 96°
2026-04-25 18:10 15.00257 -23.07353 14253 ft 381 kts 96°
2026-04-25 18:10 14.99972 -23.04618 14829 ft 384 kts 97°
2026-04-25 18:10 14.99685 -23.01861 15342 ft 388 kts 96°
2026-04-25 18:10 14.99394 -22.99080 15871 ft 391 kts 97°
2026-04-25 18:11 14.99100 -22.96267 16410 ft 394 kts 97°
2026-04-25 18:11 14.98808 -22.93440 16913 ft 397 kts 97°
2026-04-25 18:11 14.98508 -22.90581 17416 ft 401 kts 97°
2026-04-25 18:11 14.98207 -22.87708 17922 ft 404 kts 97°
2026-04-25 18:12 14.97901 -22.84803 18382 ft 407 kts 97°
2026-04-25 18:12 14.97595 -22.81881 18804 ft 410 kts 96°
2026-04-25 18:12 14.97288 -22.78936 19251 ft 412 kts 96°
2026-04-25 18:12 14.96981 -22.75985 19682 ft 416 kts 96°
2026-04-25 18:13 14.96668 -22.73002 20131 ft 418 kts 96°
2026-04-25 18:13 14.96352 -22.70006 20581 ft 420 kts 96°
2026-04-25 18:13 14.96033 -22.66989 21016 ft 423 kts 95°
2026-04-25 18:14 14.95390 -22.60913 21939 ft 427 kts 95°
2026-04-25 18:14 14.95070 -22.57856 22378 ft 430 kts 95°
2026-04-25 18:14 14.94751 -22.54773 22830 ft 432 kts 95°
2026-04-25 18:14 14.94428 -22.51702 23556 ft 421 kts 94°
2026-04-25 18:15 14.94112 -22.48782 24688 ft 400 kts 94°
2026-04-25 18:15 14.93804 -22.45948 25323 ft 395 kts 94°
2026-04-25 18:15 14.93500 -22.43136 25787 ft 393 kts 94°
2026-04-25 18:15 14.93202 -22.40322 26201 ft 393 kts 94°
2026-04-25 18:16 14.92907 -22.37509 26604 ft 393 kts 93°
2026-04-25 18:16 14.92611 -22.34701 27004 ft 393 kts 93°
2026-04-25 18:16 14.92017 -22.29106 27784 ft 394 kts 93°
2026-04-25 18:17 14.91715 -22.26291 28176 ft 394 kts 93°
2026-04-25 18:17 14.91418 -22.23481 28559 ft 394 kts 93°
2026-04-25 18:17 14.91119 -22.20660 28945 ft 394 kts 93°
2026-04-25 18:17 14.90817 -22.17842 29310 ft 395 kts 93°
2026-04-25 18:18 14.90513 -22.15024 29666 ft 395 kts 93°
2026-04-25 18:18 14.90208 -22.12190 29964 ft 398 kts 92°
2026-04-25 18:18 14.89901 -22.09326 30083 ft 404 kts 93°
2026-04-25 18:18 14.89588 -22.06428 30322 ft 407 kts 93°
2026-04-25 18:19 14.89273 -22.03517 30625 ft 407 kts 93°
2026-04-25 18:19 14.88961 -22.00612 30952 ft 407 kts 94°
2026-04-25 18:19 14.88644 -21.97708 31270 ft 406 kts 94°
2026-04-25 18:19 14.88326 -21.94805 31594 ft 406 kts 94°
2026-04-25 18:20 14.88009 -21.91897 31862 ft 408 kts 94°
2026-04-25 18:20 14.87693 -21.88975 32118 ft 410 kts 94°
2026-04-25 18:20 14.87374 -21.86037 32374 ft 412 kts 95°
2026-04-25 18:20 14.87053 -21.83088 32584 ft 416 kts 95°
2026-04-25 18:21 14.86730 -21.80093 32716 ft 421 kts 95°
2026-04-25 18:21 14.86403 -21.77068 32886 ft 425 kts 95°
2026-04-25 18:21 14.86070 -21.74034 32924 ft 425 kts 95°
2026-04-25 18:22 14.85397 -21.67948 32929 ft 425 kts 95°
2026-04-25 18:22 14.84733 -21.61882 32923 ft 425 kts 95°
2026-04-25 18:23 14.84071 -21.55846 32923 ft 425 kts 95°
2026-04-25 18:23 14.83399 -21.49774 32923 ft 425 kts 95°
2026-04-25 18:24 14.82729 -21.43706 32921 ft 425 kts 95°
2026-04-25 18:24 14.82061 -21.37640 32918 ft 425 kts 95°
2026-04-25 18:25 14.81386 -21.31579 32915 ft 424 kts 95°
2026-04-25 18:25 14.80713 -21.25511 32912 ft 424 kts 95°
2026-04-25 18:26 14.80033 -21.19466 32914 ft 424 kts 95°
2026-04-25 18:26 14.79351 -21.13407 32906 ft 424 kts 95°
2026-04-25 18:27 14.78672 -21.07357 32906 ft 424 kts 95°
2026-04-25 18:27 14.78005 -21.01346 32900 ft 424 kts 95°
2026-04-25 18:28 14.77323 -20.95292 32903 ft 424 kts 95°
2026-04-25 18:28 14.76635 -20.89234 32903 ft 424 kts 95°
2026-04-25 18:29 14.75606 -20.80155 32910 ft 424 kts 95°
2026-04-25 18:30 14.74237 -20.68041 32904 ft 424 kts 95°
2026-04-25 18:30 14.73536 -20.61986 32902 ft 424 kts 95°
2026-04-25 18:31 14.72838 -20.55918 32902 ft 424 kts 95°
2026-04-25 18:31 14.72152 -20.49905 32901 ft 424 kts 95°
2026-04-25 18:32 14.71458 -20.43852 32903 ft 424 kts 95°
2026-04-25 18:32 14.70768 -20.37799 32903 ft 424 kts 95°
2026-04-25 18:33 14.70062 -20.31743 32902 ft 423 kts 95°
2026-04-25 18:33 14.69356 -20.25711 32903 ft 422 kts 95°
2026-04-25 18:34 14.68376 -20.19731 32903 ft 423 kts 106°
2026-04-25 18:34 14.66544 -20.13992 32906 ft 423 kts 107°
2026-04-25 18:35 14.64700 -20.08224 32904 ft 423 kts 107°
2026-04-25 18:35 14.62858 -20.02457 32900 ft 423 kts 107°
2026-04-25 18:36 14.61003 -19.96689 32896 ft 423 kts 107°
2026-04-25 18:36 14.59142 -19.90923 32896 ft 423 kts 107°
2026-04-25 18:37 14.57282 -19.85156 32898 ft 423 kts 107°
2026-04-25 18:37 14.55432 -19.79385 32900 ft 423 kts 107°
2026-04-25 18:38 14.53580 -19.73618 32904 ft 423 kts 107°
2026-04-25 18:38 14.51723 -19.67851 32903 ft 423 kts 107°
2026-04-25 18:39 14.49865 -19.62089 32897 ft 423 kts 107°
2026-04-25 18:39 14.48008 -19.56327 32895 ft 423 kts 107°
2026-04-25 18:40 14.46152 -19.50574 32893 ft 423 kts 107°
2026-04-25 18:40 14.44288 -19.44813 32889 ft 422 kts 107°
2026-04-25 18:41 14.42426 -19.39074 32891 ft 422 kts 107°
2026-04-25 18:41 14.40576 -19.33371 32891 ft 421 kts 107°
2026-04-25 18:42 14.39333 -19.29536 32889 ft 421 kts 107°
2026-04-25 18:42 14.36857 -19.21911 32884 ft 421 kts 107°
2026-04-25 18:43 14.34996 -19.16187 32887 ft 421 kts 107°
2026-04-25 18:43 14.33134 -19.10461 32885 ft 421 kts 107°
2026-04-25 18:44 14.31276 -19.04736 32882 ft 421 kts 107°
2026-04-25 18:44 14.29412 -18.99011 32883 ft 421 kts 107°
2026-04-25 18:45 14.27542 -18.93288 32551 ft 420 kts 107°
2026-04-25 18:45 14.26616 -18.90454 31983 ft 422 kts 107°
2026-04-25 18:45 14.25679 -18.87595 31628 ft 420 kts 107°
2026-04-25 18:46 14.24744 -18.84744 31125 ft 418 kts 107°
2026-04-25 18:46 14.23820 -18.81916 30729 ft 416 kts 107°
2026-04-25 18:46 14.22893 -18.79081 30337 ft 413 kts 107°
2026-04-25 18:46 14.21986 -18.76303 29954 ft 411 kts 107°
2026-04-25 18:47 14.21079 -18.73523 29509 ft 408 kts 107°
2026-04-25 18:47 14.20179 -18.70763 29089 ft 405 kts 107°
2026-04-25 18:47 14.19285 -18.68026 28671 ft 401 kts 107°
2026-04-25 18:47 14.18398 -18.65314 28249 ft 398 kts 107°
2026-04-25 18:48 14.17514 -18.62615 27764 ft 398 kts 107°
2026-04-25 18:48 14.16625 -18.59917 27129 ft 394 kts 107°
2026-04-25 18:48 14.15754 -18.57269 26526 ft 387 kts 107°
2026-04-25 18:48 14.14899 -18.54659 25935 ft 381 kts 107°
2026-04-25 18:49 14.14055 -18.52089 25359 ft 376 kts 107°
2026-04-25 18:49 14.13224 -18.49548 24792 ft 372 kts 108°
2026-04-25 18:49 14.12396 -18.47030 24234 ft 369 kts 108°
2026-04-25 18:49 14.11575 -18.44534 23692 ft 365 kts 108°
2026-04-25 18:50 14.11038 -18.42901 23306 ft 363 kts 108°
2026-04-25 18:50 14.09964 -18.39627 22441 ft 358 kts 108°
2026-04-25 18:50 14.09439 -18.38023 22024 ft 356 kts 108°
2026-04-25 18:50 14.08927 -18.35547 21407 ft 352 kts 91°
2026-04-25 18:51 14.09169 -18.33067 20803 ft 346 kts 75°
2026-04-25 18:51 14.09531 -18.31470 20411 ft 345 kts 75°
2026-04-25 18:51 14.10267 -18.28261 19630 ft 344 kts 75°
2026-04-25 18:51 14.10820 -18.25870 19062 ft 341 kts 75°
2026-04-25 18:52 14.11367 -18.23504 18511 ft 338 kts 76°
2026-04-25 18:52 14.11908 -18.21156 17926 ft 335 kts 76°
2026-04-25 18:52 14.12443 -18.18826 17315 ft 333 kts 76°
2026-04-25 18:52 14.12968 -18.16515 16727 ft 329 kts 76°
2026-04-25 18:53 14.13480 -18.14259 16182 ft 326 kts 76°
2026-04-25 18:53 14.13996 -18.11998 15631 ft 323 kts 76°
2026-04-25 18:53 14.14510 -18.09755 15093 ft 320 kts 77°
2026-04-25 18:53 14.15019 -18.07533 14596 ft 316 kts 77°
2026-04-25 18:54 14.16024 -18.03156 13563 ft 311 kts 78°
2026-04-25 18:54 14.16514 -18.01009 13195 ft 300 kts 78°
2026-04-25 18:54 14.16981 -17.98960 12859 ft 290 kts 78°
2026-04-25 18:55 14.17437 -17.96947 12399 ft 286 kts 78°
2026-04-25 18:55 14.17885 -17.94969 11942 ft 281 kts 78°
2026-04-25 18:55 14.18329 -17.93014 11440 ft 279 kts 79°
2026-04-25 18:55 14.18767 -17.91078 10967 ft 275 kts 78°
2026-04-25 18:56 14.19199 -17.89172 10520 ft 270 kts 78°
2026-04-25 18:56 14.19625 -17.87299 10050 ft 267 kts 79°
2026-04-25 18:56 14.20046 -17.85446 9576 ft 264 kts 78°
2026-04-25 18:56 14.20461 -17.83619 9061 ft 261 kts 77°
2026-04-25 18:57 14.20873 -17.81806 8525 ft 258 kts 77°
2026-04-25 18:57 14.21282 -17.80009 7993 ft 256 kts 76°
2026-04-25 18:57 14.21686 -17.78232 7470 ft 254 kts 76°
2026-04-25 18:57 14.21950 -17.77063 7128 ft 252 kts 76°
2026-04-25 18:58 14.22473 -17.74747 6444 ft 249 kts 74°
2026-04-25 18:58 14.23257 -17.71303 5362 ft 245 kts 72°
2026-04-25 18:58 14.23638 -17.69610 5076 ft 242 kts 72°
2026-04-25 18:59 14.24404 -17.66216 5031 ft 244 kts 74°
2026-04-25 18:59 14.25181 -17.62786 5032 ft 249 kts 72°
2026-04-25 19:00 14.25976 -17.59272 5027 ft 252 kts 73°
2026-04-25 19:00 14.26373 -17.57507 5027 ft 253 kts 72°
2026-04-25 19:01 14.27172 -17.53969 5027 ft 253 kts 74°
2026-04-25 19:01 14.27570 -17.52203 5028 ft 252 kts 74°
2026-04-25 19:01 14.27965 -17.50445 5024 ft 252 kts 72°
2026-04-25 19:01 14.28358 -17.48705 5027 ft 252 kts 74°
2026-04-25 19:02 14.29148 -17.45185 5017 ft 252 kts 73°
2026-04-25 19:02 14.29543 -17.43424 5022 ft 252 kts 73°
2026-04-25 19:02 14.29940 -17.41663 5017 ft 252 kts 73°
2026-04-25 19:03 14.30605 -17.38715 5019 ft 251 kts 73°
2026-04-25 19:03 14.31129 -17.36387 5021 ft 252 kts 74°
2026-04-25 19:03 14.31525 -17.34618 5021 ft 252 kts 72°
2026-04-25 19:04 14.32292 -17.31200 5011 ft 231 kts 73°
2026-04-25 19:04 14.32648 -17.29607 5012 ft 228 kts 73°
2026-04-25 19:05 14.33363 -17.26421 5015 ft 227 kts 74°
2026-04-25 19:05 14.34068 -17.23270 4745 ft 221 kts 71°
2026-04-25 19:05 14.34416 -17.21728 4431 ft 219 kts 74°
2026-04-25 19:06 14.34760 -17.20201 4079 ft 221 kts 73°
2026-04-25 19:06 14.35436 -17.17181 3680 ft 211 kts 72°
2026-04-25 19:06 14.35767 -17.15707 3560 ft 211 kts 72°
2026-04-25 19:07 14.36421 -17.12771 3362 ft 209 kts 75°
2026-04-25 19:07 14.36748 -17.11305 3265 ft 209 kts 73°
2026-04-25 19:08 14.37779 -17.08578 3082 ft 204 kts 47°
2026-04-25 19:08 14.38830 -17.07633 3006 ft 200 kts 27°
2026-04-25 19:09 14.42838 -17.07055 3010 ft 196 kts 359°
2026-04-25 19:09 14.43731 -17.07063 3007 ft 193 kts 360°
2026-04-25 19:09 14.46848 -17.07093 3011 ft 190 kts 359°
2026-04-25 19:10 14.48184 -17.07105 3011 ft 194 kts 359°
2026-04-25 19:10 14.49519 -17.07118 3005 ft 187 kts 359°
2026-04-25 19:10 14.50771 -17.07129 3026 ft 172 kts 360°
2026-04-25 19:10 14.51950 -17.07140 2812 ft 164 kts 360°
2026-04-25 19:11 14.53081 -17.07151 2601 ft 164 kts 359°
2026-04-25 19:11 14.54225 -17.07162 2396 ft 162 kts 359°
2026-04-25 19:11 14.55277 -17.07172 2190 ft 146 kts
2026-04-25 19:11 14.56286 -17.07181 2022 ft 141 kts
2026-04-25 19:12 14.57251 -17.07190 1836 ft 139 kts
2026-04-25 19:12 14.58210 -17.07199 1665 ft 137 kts
2026-04-25 19:12 14.59174 -17.07208 1490 ft 136 kts
2026-04-25 19:12 14.60113 -17.07217 1319 ft 134 kts
2026-04-25 19:13 14.61043 -17.07225 1139 ft 135 kts
2026-04-25 19:13 14.61968 -17.07234 979 ft 132 kts 358°
2026-04-25 19:13 14.62891 -17.07243 824 ft 130 kts 358°
2026-04-25 19:13 14.63804 -17.07251 655 ft 131 kts
2026-04-25 19:14 14.64722 -17.07260 558 ft 141 kts 360°
2026-04-25 19:14 14.65068 -17.07264 666 ft 152 kts
2026-04-25 19:14 14.67038 -17.07279 1567 ft 178 kts
2026-04-25 19:14 14.68294 -17.07276 1979 ft 184 kts
2026-04-25 19:15 14.69600 -17.07278 2318 ft 189 kts
2026-04-25 19:15 14.70921 -17.07265 2650 ft 190 kts
2026-04-25 19:15 14.72248 -17.07252 2944 ft 192 kts